Welcome to the New NWS' Forecast!
Most changes are behind the scenes, but click here for differences you might notice.

Regional Weather Roundup (RWR)

Issued by Gray - Portland, ME (GYX)

                            
000
ASUS41 KGYX 180505
RWRGYX
WEATHER ROUNDUP FOR MAINE AND NEW HAMPSHIRE
NATIONAL WEATHER SERVICE GRAY ME
100 AM EDT THU OCT 18 2018

MEZ002-005-006-010-012-015-018-020-021-024-026-027-029-180600-
MAINE
  
CITY           SKY/WX    TMP DP  RH WIND       PRES   REMARKS
PORTLAND       CLOUDY    39  32  76 W10       29.88R                  
SANFORD        CLOUDY    39  31  72 W14       29.90R                  
BAR HARBOR     FAIR      37  30  75 W5        29.78S                  
WISCASSET      MOCLDY    41  25  53 VRB6      29.86R                  
ROCKLAND       FAIR      34  28  79 W8        29.82S                  
FRYEBURG       FAIR      39  19  44 W14G25    29.89R                  
LEWISTONAUBURN FAIR      39  25  57 W5        29.86R                  
AUGUSTA        FAIR      38  28  67 W13G20    29.83R                  
WATERVILLE     CLOUDY    39  29  67 VRB7      29.79R                  
BANGOR         FAIR      37  28  70 W7        29.77F                  
GREENVILLE       N/A     33  25  72 NW13G22   29.70R                  
MILLINOCKET    MOCLDY    36  27  69 W7        29.73R                  
HOULTON        CLOUDY    34  30  85 W5        29.66R                  
PRESQUE ISLE   FAIR      33  27  78 W8        29.66R                  
FRENCHVILLE    FAIR      33  23  66 W14       29.62R                  
CARIBOU        FAIR      34  25  69 NW13G21   29.63R                  
$$

NHZ002-005-008-009-011-012-014-180600-
NEW HAMPSHIRE
  
CITY           SKY/WX    TMP DP  RH WIND       PRES   REMARKS
PORTSMOUTH     MOCLDY    40  31  71 W12G18    29.92R                  
ROCHESTER      MOCLDY    38  33  82 VRB6      29.91R                  
NASHUA         MOCLDY    41  32  70 NW9       29.97R                  
MANCHESTER     LGT RAIN  39  34  82 W5        29.95R                  
CONCORD        FAIR      36  31  82 W7        29.95R                  
LACONIA        FAIR      37  28  70 W10G18    29.92                   
PLYMOUTH       FAIR      36  29  74 NW13      29.92R                  
BERLIN         LGT SNOW  33  30  88 NW9       29.85R FOG              
WHITEFIELD     FAIR      34  25  69 W9        29.89R                  
JAFFREY        FAIR      36  28  73 NW13G28   29.97R                  
KEENE          MOCLDY    36  28  73 SW7       30.00R                  
LEBANON        MOCLDY    36  28  73 NW12G23   29.97R                  
MT WASHINGTON  SNOW      12  12 100 NW68G79     N/A  VSB 1/16WCI -17  
$$

VTZ005-007-008-180600-
VERMONT
  
CITY           SKY/WX    TMP DP  RH WIND       PRES   REMARKS
ST JOHNSBURY     N/A     35  25  66 MISG      29.91R                  
MONTPELIER     CLOUDY    33  25  72 W9        29.97R                  
BURLINGTON     MOCLDY    38  24  57 W16G23    30.00R                  
$$

MAZ007-012-024-CTZ003-RIZ002-NYZ038-NYZ072-180600-
SOUTHERN NEW ENGLAND AND NY
  
CITY           SKY/WX    TMP DP  RH WIND       PRES   REMARKS
BOSTON         FAIR      47  28  47 W14G26    29.96R                  
WORCESTER      FAIR      37  30  75 W16G23    29.97R                  
NANTUCKET      FAIR      48  31  51 NW23G36   29.97R                  
PROVIDENCE     FAIR      44  30  57 W13       30.02R                  
HARTFORD       FAIR      43  27  53 W15       30.06R                  
ALBANY         MOCLDY    39  29  67 NW8       30.09R                  
NEW YORK CITY  FAIR      49  31  49 NW16      30.14R                  
$$

ANZ081-ANZ082-ANZ150-NHZ014-MEZ023>029-180600-
COASTAL MARINE OBSERVATIONS
  
STATION/POSITION TIME  TEMP    WIND        PRES    WAVE
                       AIR SEA DIR/SP/G            HT/PER
                 (UTC) (F)     (DEG/KT/KT) (MB)    (FT/S)
MOUNT DESERT ROC 0500   45     280/ 31/ 35 1008.5F
MATINICUS ROCK   0400   45     290/ 26/ 28 1008.9R
ISLE OF SHOALS   0400   43     280/ 26/ 30 1012.0R
JEFFREYS LEDGE   0406      56                N/A     4/ 5
$$

.............KEY..............
   WCI - WIND CHILL
   TC  - TEMPERATURE IN CELSIUS
   VSB - VISIBILITY IN MILES
   HX  - HEAT INDEX
   FAIR- INDICATES FEW OR NO CLOUDS BELOW 12,000 FT, WITH NO 
         SIGNIFICANT WEATHER AND/OR OBSTRUCTIONS TO VISIBILITY.